Wind_Speed
28 26 25 24 22 22 24 24 26 27 27 25 24 24 25 26 26 26 26 26 26 28 33 38 39 38 39 40 39 38 38 38 38 38 36 32 28 26 23 16 9 6 9 16 19 20 18 16 16 15 14 15 16 16 18 19 20 20 19 18 17 16 15 15 15 15 14 12 10 8 7 6 6 5 5 5 5 5 4 5 6 7 7 7 8
29 27 25 24 23 23 24 26 27 27 25 21 21 23 24 25 26 26 26 27 28 30 34 38 37 36 38 37 37 38 38 38 37 35 31 27 25 24 20 13 6 4 8 14 17 19 18 16 15 15 15 15 16 16 17 18 18 17 17 16 15 15 14 14 15 15 14 13 12 10 9 8 8 7 7 6 5 5 4 5 6 7 7 7 8
28 26 25 23 23 23 24 26 26 24 22 20 21 21 22 24 24 26 28 29 31 32 33 33 34 36 37 38 39 40 39 37 33 29 26 24 24 22 18 10 4 3 5 11 15 18 19 17 15 14 13 13 14 14 14 14 14 13 13 12 13 13 13 13 14 14 14 14 13 12 11 11 10 10 10 8 7 6 5 6 7 7 7 7 7
27 26 25 24 23 23 23 24 22 21 20 20 20 20 22 22 24 28 30 30 31 30 30 32 34 37 39 40 40 39 37 33 28 25 24 24 22 19 15 7 2 1 4 9 12 16 18 18 16 13 12 11 10 10 8 8 8 9 9 9 11 12 11 12 12 12 13 14 14 13 12 12 11 11 11 10 9 9 8 7 7 7 7 7 7
28 27 26 24 22 22 21 21 19 18 18 19 20 22 23 22 25 30 30 28 28 28 31 35 37 39 41 42 41 38 34 29 26 25 24 23 19 16 11 4 1 1 2 6 9 13 16 17 17 15 13 11 9 8 6 4 4 5 6 6 8 10 10 11 10 9 10 12 13 13 12 12 11 11 12 12 11 11 10 9 8 8 8 8 7
28 26 24 22 21 20 19 18 16 15 16 19 21 22 22 21 23 26 27 27 29 30 33 37 40 42 43 43 40 35 30 27 26 25 23 19 16 13 8 2 2 1 1 3 5 9 14 15 16 16 15 13 11 10 7 6 5 4 4 4 5 7 9 9 9 8 8 10 12 12 12 12 12 12 12 13 12 12 11 11 10 10 8 8 7
26 23 21 20 19 16 14 14 14 15 19 21 21 20 20 21 22 25 27 29 31 31 34 38 40 41 42 41 37 31 28 27 26 22 18 15 13 10 5 2 2 2 1 2 3 5 10 13 14 15 14 14 12 11 10 9 8 7 6 5 4 5 6 6 7 6 6 8 10 11 11 12 12 13 14 14 13 12 12 11 11 10 9 8 7
23 21 19 18 16 13 11 12 15 18 21 21 20 20 21 24 26 27 28 30 31 32 34 37 39 40 39 35 30 28 27 25 22 18 14 13 11 8 3 2 2 3 4 4 5 1 6 10 11 12 12 12 11 11 10 9 8 8 7 7 6 4 4 3 3 4 3 6 7 8 9 10 12 13 14 15 14 13 12 11 11 11 10 8 7
21 20 19 18 15 13 13 15 17 18 20 20 21 22 24 25 26 27 28 29 30 32 34 35 36 35 31 28 26 25 24 22 19 16 13 12 10 6 3 2 3 4 6 8 5 2 2 6 7 9 10 10 10 10 9 9 8 8 7 7 7 5 2 2 2 2 2 4 5 6 7 8 10 12 13 14 15 14 13 11 10 10 10 9 7
21 20 18 16 14 14 15 15 15 17 19 21 23 23 24 25 25 26 27 28 30 31 32 32 31 28 25 24 23 21 20 20 18 15 12 10 8 5 3 3 5 5 7 10 6 2 1 1 3 5 7 8 8 8 8 9 9 8 7 7 7 5 2 2 3 2 1 2 3 3 4 6 7 9 11 13 14 14 13 11 10 10 10 9 8
20 19 18 17 16 16 16 16 16 17 19 21 23 24 25 25 26 27 28 28 29 30 30 28 26 23 22 20 18 17 18 17 16 13 10 8 5 4 4 4 4 5 7 9 8 4 1 1 2 3 3 5 6 6 6 7 8 8 7 7 6 4 3 4 4 3 2 2 3 2 2 4 5 7 9 10 12 12 12 12 10 10 10 10 8
20 19 17 17 17 17 18 18 19 20 20 21 22 24 24 25 27 28 28 28 29 28 26 24 22 21 19 15 14 14 15 14 13 11 8 6 4 4 4 4 3 4 7 8 7 4 1 2 3 3 2 1 3 3 2 4 5 6 7 7 7 5 5 5 3 2 2 3 4 2 2 3 4 5 7 7 10 11 11 11 11 9 10 10 9
22 19 17 17 18 18 20 20 21 21 20 21 22 23 24 25 26 27 27 27 26 24 21 20 19 17 14 11 12 13 14 14 13 11 8 6 5 4 4 4 3 4 7 8 8 7 4 3 4 5 5 5 5 5 4 4 4 5 6 8 8 6 6 3 1 1 1 2 4 4 4 4 3 4 6 7 8 10 10 10 11 10 9 9 8
22 20 19 19 20 21 22 23 23 22 21 22 23 24 24 25 25 26 25 24 21 19 19 18 16 12 9 10 11 12 14 14 13 11 8 7 5 5 5 5 5 6 8 8 9 8 8 7 8 8 8 9 11 10 8 7 6 6 6 8 8 6 5 2 2 1 1 1 2 4 6 6 5 5 6 8 8 8 9 8 9 10 9 8 8
22 21 20 21 23 24 24 25 26 26 25 25 25 24 24 24 24 23 21 19 18 17 16 14 11 8 8 10 11 11 13 14 13 11 9 7 6 6 7 8 9 10 10 10 10 10 10 10 10 9 10 11 13 12 11 10 8 8 7 8 9 7 4 1 3 3 3 3 4 5 7 7 7 6 7 9 8 7 7 7 7 9 9 8 7
23 22 21 22 23 24 24 25 26 27 26 25 24 24 23 23 21 19 17 17 16 14 12 10 8 7 8 10 11 12 14 16 15 13 11 10 10 11 12 13 14 14 14 13 13 13 13 13 12 10 9 10 12 13 14 14 12 10 9 10 10 8 6 3 3 4 4 6 6 6 7 8 9 8 8 9 9 7 6 6 5 7 8 7 6
23 22 22 22 22 23 23 24 24 24 24 24 23 22 20 18 16 16 15 14 12 10 9 7 6 8 9 11 12 13 14 16 16 14 13 14 15 16 17 19 20 19 19 19 18 19 20 21 20 19 17 14 11 10 11 13 14 13 13 14 12 9 7 5 4 4 4 6 6 5 6 8 9 8 8 9 10 9 6 4 4 5 6 6 6
24 24 23 23 23 22 22 23 23 23 23 21 20 17 15 14 14 13 12 10 9 7 6 6 6 8 8 11 12 13 14 15 15 15 15 15 16 17 18 20 22 21 21 21 21 22 23 23 23 22 22 21 20 16 10 7 9 13 16 15 12 10 9 7 6 5 5 7 7 7 7 7 7 8 9 10 11 10 7 3 2 2 4 4 5
26 25 24 24 23 22 22 22 23 22 19 16 14 13 13 12 12 10 8 7 6 6 5 5 6 7 7 9 11 12 13 14 15 16 16 16 16 16 17 19 20 20 19 20 20 22 23 24 23 23 22 22 23 22 16 8 3 9 13 13 12 10 9 8 8 8 8 9 10 9 8 7 7 7 9 11 12 11 9 5 2 1 2 3 3
26 25 24 23 22 22 22 21 20 18 14 12 12 12 11 10 8 6 5 5 5 5 6 6 6 7 6 8 11 12 12 14 16 17 17 16 15 16 17 17 18 18 19 20 22 24 26 26 25 25 24 23 23 24 20 12 7 4 6 8 10 9 8 9 10 11 10 10 10 10 9 8 9 9 9 11 13 13 10 7 4 4 3 2 2
25 24 23 21 21 20 20 18 15 12 10 11 11 10 9 7 5 4 5 6 6 6 7 7 7 7 7 8 11 12 13 14 16 17 17 16 16 17 17 17 17 19 20 23 25 26 27 27 28 27 27 25 24 25 23 18 14 9 6 5 7 7 9 12 12 10 10 11 10 10 10 9 10 11 12 12 13 13 12 9 6 5 6 5 3
23 21 20 19 18 17 15 13 10 10 10 10 9 8 6 3 4 5 5 6 6 7 8 9 9 9 9 9 11 13 14 16 17 17 17 16 17 18 19 20 21 22 24 25 26 26 27 28 29 30 30 28 26 26 25 23 20 13 8 7 7 8 9 12 12 10 11 11 10 10 12 12 11 12 12 12 14 14 13 11 8 7 8 8 7
19 18 17 16 14 12 10 9 9 9 9 8 6 4 2 4 5 5 6 6 6 7 8 9 10 10 11 11 12 14 16 17 18 18 18 18 18 20 21 23 24 25 26 27 27 27 28 29 30 31 31 30 28 26 26 25 23 19 13 9 8 10 11 11 11 11 12 12 11 12 14 15 14 12 12 12 13 14 13 12 10 8 8 10 10
15 13 12 10 9 8 8 8 9 9 8 5 2 1 4 5 5 5 5 5 6 8 9 11 12 12 12 12 13 14 16 18 18 18 18 18 18 19 21 23 25 26 27 28 28 28 28 29 30 30 30 30 29 26 25 25 24 23 21 18 13 9 9 12 14 15 15 14 14 14 14 15 15 14 13 13 12 13 12 12 12 11 9 9 10
9 8 7 6 6 7 7 8 7 7 5 1 2 5 6 6 5 5 5 5 7 9 11 13 14 13 12 12 12 13 15 16 16 16 15 15 15 18 20 22 24 25 26 27 28 29 29 29 31 31 30 31 31 28 24 22 22 23 23 24 23 20 17 13 11 12 16 18 18 18 16 16 16 16 16 14 13 13 14 13 13 13 12 10 11
5 5 5 5 6 6 6 5 5 3 1 4 6 7 7 6 5 5 5 7 9 10 12 14 15 14 13 12 11 12 13 13 12 12 11 12 14 17 19 21 22 23 24 25 26 28 29 30 32 33 32 31 32 31 27 22 20 20 20 22 24 25 26 24 20 15 11 12 16 20 23 22 21 19 18 16 15 15 15 16 15 14 13 13 13
4 5 5 5 4 3 3 2 1 3 6 8 9 8 7 6 5 5 6 8 10 11 12 13 14 14 13 13 12 12 11 10 9 9 9 11 14 17 19 21 22 23 24 24 25 27 28 29 31 33 33 31 32 33 31 27 23 20 18 19 20 22 24 26 25 24 22 17 13 13 17 23 26 25 21 19 18 18 18 17 17 17 16 15 15
5 5 4 3 1 2 3 4 6 8 10 10 10 8 7 6 6 7 8 10 11 11 12 12 12 12 13 13 12 11 10 8 8 8 9 12 15 17 19 21 22 23 24 24 25 26 27 29 30 32 32 31 32 33 33 30 26 22 19 17 17 18 19 22 24 25 26 25 23 19 16 14 17 23 25 24 21 21 21 20 19 18 17 17 17
5 5 3 1 4 5 6 8 10 11 11 11 10 9 8 8 8 9 9 11 11 11 11 11 10 11 11 11 11 10 9 8 8 9 11 13 15 17 19 21 21 23 23 23 25 24 24 27 29 30 32 31 31 33 34 32 29 24 20 17 15 15 16 17 19 22 24 26 25 24 22 19 16 13 18 23 24 23 22 22 21 19 17 17 18
6 4 3 5 7 7 8 10 11 12 12 11 10 9 9 9 9 10 10 11 10 10 10 10 10 10 11 11 12 11 10 10 10 10 11 13 15 17 18 20 20 22 22 22 23 23 23 25 28 29 30 29 28 31 34 34 31 26 23 20 16 14 14 15 17 18 21 24 25 24 22 21 20 17 14 14 20 25 25 24 22 21 19 18 18
6 5 7 8 9 9 10 11 11 11 11 10 10 10 11 10 10 10 10 10 10 10 10 11 11 11 12 12 12 12 13 13 13 12 13 15 16 17 18 19 19 20 20 21 21 21 21 24 26 28 29 27 25 29 33 34 33 29 26 23 19 16 14 14 15 17 19 21 23 23 21 20 20 19 17 15 12 17 24 27 25 22 21 20 20
7 9 10 10 10 11 11 11 11 11 11 11 11 11 11 11 11 10 10 9 10 11 12 13 13 14 14 13 13 13 14 15 15 16 16 17 18 18 18 18 18 18 18 19 19 19 21 24 26 28 27 25 23 26 31 33 33 32 29 27 24 21 18 16 16 16 18 19 21 22 21 19 19 19 19 18 16 13 14 22 27 27 25 24 24
11 12 12 12 11 11 11 11 12 12 12 12 12 11 11 10 10 9 9 10 11 12 13 13 14 14 14 14 14 15 15 15 15 16 17 17 18 18 18 18 18 18 18 18 18 19 21 23 26 27 26 24 22 23 28 30 31 32 31 30 27 24 22 20 19 18 18 18 20 21 21 19 18 20 20 19 18 16 15 13 19 27 31 29 28
13 13 13 12 11 11 11 12 12 12 13 12 12 11 10 10 9 9 10 11 12 13 13 14 14 14 14 15 15 16 16 15 15 15 16 16 17 17 18 17 18 18 18 19 19 20 22 23 25 25 23 23 21 20 23 26 28 30 31 31 29 26 23 22 21 20 19 18 19 20 21 20 19 20 20 19 18 17 16 16 14 16 28 33 32
14 13 12 12 11 11 11 11 12 12 13 12 11 9 8 8 9 10 11 12 13 13 13 13 13 13 14 15 15 15 15 15 15 15 15 15 16 17 17 18 18 18 19 19 20 21 22 24 25 23 21 21 21 19 21 23 25 27 29 30 30 28 24 21 20 20 19 18 18 19 20 19 19 20 21 20 19 18 17 17 17 14 15 28 34
14 13 12 12 11 11 11 12 12 12 11 10 8 7 7 8 9 10 11 12 12 12 12 12 13 13 14 14 14 15 15 15 15 15 15 15 16 17 17 18 18 19 20 20 21 22 23 23 23 21 19 20 20 19 20 21 23 24 26 27 29 29 27 23 21 19 19 18 18 18 18 18 19 20 21 21 21 20 20 19 18 18 14 15 27
14 14 13 12 12 11 12 12 11 10 8 7 6 7 8 8 9 10 11 11 11 11 11 12 12 13 13 14 14 15 16 16 16 15 15 15 16 17 18 19 19 21 22 22 21 21 22 22 22 20 18 18 19 19 20 20 21 22 24 25 27 28 29 26 23 21 20 19 18 18 18 18 18 19 19 21 22 22 22 22 21 20 19 15 13
14 14 13 12 12 12 11 10 9 7 6 6 7 8 8 8 9 10 10 10 10 11 11 11 12 13 13 14 15 16 16 16 16 15 15 16 17 18 19 20 21 22 22 22 20 19 20 22 22 20 17 17 18 19 19 19 20 22 22 23 25 26 27 27 25 23 22 22 21 20 19 19 19 18 18 19 21 22 23 24 24 24 23 22 17
14 13 13 13 12 11 9 8 7 6 7 7 7 7 7 8 9 9 9 10 10 11 11 11 12 13 14 15 16 16 16 16 16 16 16 17 18 18 19 20 21 22 22 22 20 19 20 21 23 22 18 16 17 19 19 19 20 21 22 22 23 23 24 25 26 24 23 23 24 23 22 22 21 20 19 19 20 21 22 23 24 25 26 25 24
14 13 13 12 10 8 7 6 5 6 6 6 6 6 7 8 9 9 9 10 11 11 12 12 13 14 15 16 16 17 17 16 16 17 17 18 18 19 19 20 21 22 22 21 19 18 19 21 22 24 21 17 17 18 19 19 20 21 23 23 22 22 22 23 24 24 23 22 23 24 24 24 25 25 23 22 22 22 22 22 23 24 26 26 26
13 13 12 11 9 7 5 4 5 5 5 5 4 5 7 8 9 9 10 10 11 11 12 12 13 15 16 16 16 17 17 16 17 17 17 18 18 19 20 21 22 22 22 21 19 19 20 21 23 24 24 20 17 17 18 19 19 21 23 23 23 22 22 22 22 23 23 22 21 22 24 26 26 27 28 28 27 25 24 23 23 23 24 25 26
12 12 11 10 9 7 5 4 5 5 4 3 2 3 6 7 9 9 10 10 11 11 12 12 14 15 16 17 17 17 17 17 17 17 17 18 19 20 21 22 23 22 22 21 20 20 21 22 23 24 25 22 18 17 18 18 19 20 22 23 24 23 23 23 22 23 23 23 22 21 23 26 26 27 28 30 31 30 28 26 24 22 23 23 24
12 12 11 10 9 7 5 5 4 4 3 2 1 3 5 7 8 9 10 10 11 11 12 13 14 15 16 17 17 17 17 17 17 17 18 18 20 21 22 23 23 23 22 22 22 22 23 24 24 25 24 23 20 18 18 18 19 20 22 24 24 24 24 23 23 23 24 25 25 23 22 25 27 26 28 29 31 33 33 31 27 24 22 22 22
13 12 11 10 8 7 6 5 5 4 3 1 1 3 5 7 8 9 10 10 11 12 12 13 14 15 16 16 16 17 17 17 17 17 18 19 20 22 23 24 24 24 24 24 24 24 24 24 25 25 24 23 22 21 19 18 19 21 22 24 25 25 24 24 24 24 25 26 28 26 24 25 27 26 28 30 30 32 35 35 34 30 25 22 22
13 12 10 9 8 8 7 7 6 5 4 2 3 4 5 7 9 10 10 11 11 12 13 14 14 15 15 16 16 16 16 16 17 18 19 20 21 23 24 26 26 27 26 26 27 26 25 24 24 24 24 24 23 23 21 21 21 23 24 24 25 27 26 25 24 25 26 27 29 30 27 26 28 26 27 30 30 30 33 36 37 36 31 26 23
13 12 11 10 9 9 9 9 8 6 5 4 4 5 7 8 10 11 11 11 12 12 13 14 14 15 15 15 16 16 17 17 18 19 21 22 23 24 26 27 28 28 28 28 28 28 26 24 23 23 24 25 25 24 23 22 23 24 26 26 27 28 29 27 26 26 27 29 30 32 30 28 28 27 27 29 31 31 31 34 37 38 37 32 27
14 12 11 11 11 10 10 10 9 8 7 6 6 7 8 9 10 11 12 12 12 13 13 14 14 14 15 15 16 17 18 19 20 21 22 23 24 25 26 27 29 29 29 29 29 28 27 26 24 23 24 25 26 26 25 23 23 25 27 28 29 30 31 30 30 28 28 29 31 32 32 30 28 28 29 30 32 32 32 33 36 38 39 37 33
14 13 12 12 11 11 11 11 10 10 8 8 8 9 9 10 11 12 13 13 13 13 14 14 15 15 15 15 16 17 19 20 22 23 24 24 25 26 27 28 30 31 31 30 29 29 28 27 26 24 23 24 27 27 26 25 25 26 27 28 30 31 32 32 33 32 31 30 30 32 32 31 28 28 31 33 33 34 35 35 36 37 38 38 37
13 13 13 13 13 13 12 12 12 11 10 10 10 10 11 11 12 13 13 14 14 14 15 15 15 15 15 16 17 19 20 22 23 24 24 25 26 27 28 30 31 31 31 32 31 31 30 29 27 25 23 23 26 27 27 27 27 27 28 29 30 31 32 33 35 36 35 34 32 32 32 31 29 28 31 33 34 35 36 37 37 37 37 38 38
12 13 14 14 14 14 14 14 13 13 12 12 12 12 12 13 13 14 14 14 15 15 15 15 15 15 16 17 18 20 21 23 24 25 25 26 27 28 30 31 32 32 32 33 33 33 32 31 28 26 22 22 25 28 28 29 29 29 30 31 32 32 33 35 36 38 38 37 36 35 34 32 30 30 32 33 32 33 35 36 37 38 38 38 37
12 13 14 15 15 15 15 15 15 14 14 14 14 14 14 15 15 15 15 15 16 16 16 16 16 16 17 19 20 22 23 24 24 25 27 28 29 30 31 32 33 34 35 35 34 34 34 33 31 27 25 24 26 28 29 29 30 30 30 31 32 33 35 36 38 39 39 38 37 37 36 35 34 34 36 37 35 33 34 35 37 38 38 38 37
Wind_Direction
316 315 311 308 303 294 287 284 286 289 290 289 290 291 292 293 293 293 290 291 295 299 298 298 300 304 313 318 322 324 324 325 325 326 328 330 330 331 331 332 335 345 19 33 35 36 38 42 49 54 60 69 75 85 91 88 84 83 84 84 84 83 80 76 73 69 64 60 52 44 36 29 20 17 24 20 9 1 2 11 16 16 20 33 38
314 312 310 308 303 295 288 285 289 294 294 292 292 291 291 290 290 293 295 297 296 295 295 296 300 307 317 323 326 327 327 326 326 327 328 330 331 331 331 330 335 353 28 39 41 43 45 46 50 55 59 63 70 83 93 91 85 82 83 82 82 79 75 71 66 61 57 55 50 45 39 37 37 38 42 40 31 18 15 21 24 25 25 35 43
313 312 310 308 304 297 290 290 294 298 298 295 291 288 288 289 295 301 303 299 295 296 298 301 306 313 321 326 327 327 327 327 327 328 329 331 331 330 330 328 333 1 38 43 45 49 52 52 52 57 60 63 66 75 88 90 83 76 74 75 76 72 70 70 64 54 49 49 47 45 42 40 43 46 49 49 47 44 37 30 31 32 32 37 47
314 313 311 309 306 301 295 293 295 295 293 291 288 288 289 293 300 302 299 296 298 304 310 313 314 317 324 328 328 328 328 328 328 330 331 330 329 330 330 324 319 3 51 46 46 53 57 58 57 58 61 66 64 63 67 74 74 68 63 67 68 62 64 71 69 56 45 44 45 45 43 43 43 45 49 51 52 53 50 41 35 36 40 44 51
312 311 311 310 308 305 301 296 293 291 288 289 294 295 294 293 290 291 294 300 306 311 316 317 318 322 326 328 328 329 328 329 331 331 329 328 329 330 330 318 280 5 69 48 47 55 61 64 65 65 64 66 66 61 53 50 53 54 52 57 61 54 60 67 67 64 53 47 47 46 46 45 42 42 44 47 50 52 52 47 42 41 45 50 54
309 309 310 310 310 309 304 298 291 290 292 295 296 295 296 295 289 291 299 306 309 311 314 316 318 322 323 325 327 328 328 330 330 328 327 330 332 332 333 289 257 25 83 34 33 56 66 68 71 72 71 71 70 70 65 62 55 50 40 39 51 53 59 60 59 62 57 53 49 49 48 48 44 41 40 41 44 48 50 49 45 43 46 53 59
308 309 311 312 312 310 306 300 294 293 295 294 293 295 299 300 299 300 304 306 308 309 310 312 314 317 319 322 325 326 328 328 327 327 331 337 337 334 333 241 258 1 15 349 344 41 69 73 75 75 74 74 73 73 71 68 64 55 39 34 35 44 54 54 61 59 51 56 52 49 50 49 47 45 41 37 38 41 46 49 48 44 43 51 60
308 312 313 313 310 302 297 294 289 290 291 292 296 298 298 298 298 300 302 305 307 307 306 307 310 314 318 321 324 327 327 326 325 329 337 341 338 333 329 229 277 352 5 335 306 333 69 74 77 76 75 71 68 67 66 64 58 51 40 36 30 35 45 25 62 84 72 59 50 49 52 52 48 48 45 39 35 35 39 44 49 48 43 47 58
311 313 312 310 301 290 290 289 288 290 292 294 296 295 295 296 297 300 302 305 306 306 305 307 311 316 320 324 326 327 325 324 325 329 336 337 332 330 328 279 316 348 354 341 317 222 73 61 68 77 82 74 66 56 52 51 46 41 33 35 33 32 39 335 5 73 90 71 54 45 50 55 50 49 48 42 35 31 31 35 45 48 47 47 56
313 312 308 301 291 284 284 284 286 290 293 293 291 291 291 294 297 299 301 305 307 308 310 313 316 321 325 328 329 328 326 326 327 332 334 331 328 333 340 338 346 355 358 2 20 109 202 38 46 69 87 83 72 55 46 45 41 36 28 34 37 27 7 274 299 327 29 62 46 32 39 47 46 45 46 40 35 32 28 28 34 42 48 51 56
313 308 301 294 288 284 282 278 277 281 284 285 286 289 291 293 297 299 303 308 311 314 316 318 321 325 329 333 333 332 333 334 339 344 341 333 333 345 353 357 4 7 11 18 39 70 184 253 350 30 72 86 77 57 43 38 37 31 25 26 32 16 319 265 266 308 306 348 10 19 15 21 28 35 36 33 30 30 28 26 28 33 42 50 59
310 304 296 290 289 288 286 282 281 283 284 288 293 296 296 295 297 302 308 313 316 317 319 321 324 330 335 340 343 344 349 354 2 5 359 352 352 359 1 6 8 8 14 18 28 45 65 293 320 342 341 78 70 39 13 12 13 10 9 10 18 19 338 290 262 301 286 309 345 345 333 343 7 19 14 13 24 28 26 25 24 27 34 43 58
307 302 294 290 289 288 287 285 285 288 290 293 296 298 297 297 300 306 311 314 316 319 321 324 328 336 346 356 358 2 9 17 22 21 15 11 10 10 7 11 8 357 2 8 17 21 11 330 307 309 297 270 282 300 304 312 322 333 345 351 359 13 4 342 248 295 283 296 326 322 317 316 325 349 344 346 9 26 29 27 23 23 27 35 49
304 299 293 288 287 287 287 287 288 290 291 292 294 297 300 303 307 311 313 316 319 323 324 327 337 349 5 11 8 13 22 31 34 29 24 21 20 15 8 8 5 357 350 350 355 355 347 331 315 303 290 275 276 284 288 289 291 301 320 337 341 352 16 56 160 251 282 270 295 289 291 296 302 312 315 327 350 15 27 31 23 19 20 28 38
298 294 290 286 284 285 286 287 290 292 294 296 299 303 306 308 310 314 317 320 323 325 328 339 352 6 21 17 12 20 30 40 44 38 35 31 26 22 18 18 17 13 6 358 354 351 346 340 332 314 294 283 281 282 280 279 279 280 294 314 318 326 351 69 196 243 285 293 281 265 272 281 287 295 298 309 329 354 18 27 22 16 14 21 30
294 291 289 287 285 284 285 287 289 291 295 298 302 304 307 310 314 318 322 324 325 331 342 357 14 30 31 21 21 30 42 51 52 49 49 48 48 47 44 42 39 35 31 27 24 23 23 22 20 8 340 309 294 287 282 280 275 272 277 287 291 299 315 314 244 264 305 311 297 273 270 273 273 279 286 295 308 322 354 18 18 15 12 15 26
291 290 289 287 286 287 288 288 290 292 295 298 301 305 310 316 320 322 325 326 333 348 5 27 43 45 36 30 34 43 51 53 53 53 55 56 57 58 57 52 47 45 43 44 47 49 48 46 43 39 33 19 356 324 298 283 272 267 269 272 272 274 287 298 286 292 314 320 312 291 277 274 272 275 280 284 294 301 313 353 9 13 13 13 24
290 290 288 287 287 289 290 292 294 296 297 299 304 311 316 321 323 324 326 334 354 14 40 53 50 46 42 38 43 48 49 47 48 52 53 54 57 59 58 50 45 47 51 54 55 53 46 40 37 36 35 31 27 18 356 314 271 257 260 264 261 260 272 291 305 310 309 308 310 311 299 283 274 279 284 282 285 289 288 300 329 5 14 11 19
291 289 286 286 288 290 293 295 297 297 299 305 313 319 320 323 325 328 337 0 26 49 61 52 43 44 44 44 45 44 44 45 49 52 53 53 57 58 50 41 41 46 50 50 45 37 30 26 26 27 29 28 27 26 21 13 299 249 250 257 254 257 271 293 311 312 305 300 305 315 314 300 293 291 290 283 278 278 276 273 261 265 357 4 11
288 286 285 286 288 292 295 297 298 299 305 315 320 321 322 326 333 348 14 43 61 67 58 46 41 41 44 45 42 43 46 50 53 55 56 55 54 48 37 32 36 41 42 38 32 27 26 25 26 26 28 28 28 26 26 28 16 307 260 260 258 260 274 292 301 300 295 292 300 309 313 316 312 303 292 283 273 268 267 266 252 239 250 305 338
284 284 285 287 290 294 295 295 298 305 315 320 320 322 327 336 4 39 61 74 74 63 54 49 45 41 43 43 44 48 53 56 57 56 55 51 46 41 38 38 40 40 37 34 31 29 29 29 27 27 27 28 29 29 28 28 21 353 312 287 271 268 279 290 294 294 292 286 289 297 306 319 316 303 289 282 275 265 260 261 258 246 245 255 279
284 285 288 290 292 294 292 292 301 312 317 317 320 327 338 18 68 81 90 83 67 57 54 51 46 45 46 47 49 53 55 57 56 54 53 50 48 48 47 46 44 41 37 33 32 32 31 30 29 27 25 25 26 30 31 31 31 17 338 310 287 277 282 290 290 287 289 286 288 292 295 299 302 305 298 291 282 263 253 259 267 257 241 244 257
287 288 289 290 290 290 292 296 306 312 312 315 325 340 43 92 98 104 95 75 58 54 53 51 50 52 53 53 52 53 55 56 56 58 61 59 56 53 48 42 38 34 32 29 28 29 28 29 28 28 28 27 25 26 29 32 37 37 24 353 314 286 277 280 279 278 283 283 285 292 292 286 286 299 307 302 284 261 252 259 269 266 240 239 250
287 289 289 290 289 290 298 304 308 310 311 316 333 106 117 113 114 108 89 67 54 54 55 57 60 58 57 56 55 54 55 56 57 62 66 63 55 47 39 32 28 26 24 23 22 23 23 24 24 27 30 32 30 26 26 29 32 37 38 32 19 350 309 290 281 275 276 277 277 283 289 286 280 284 295 300 282 260 257 260 265 268 256 242 246
287 292 293 292 293 297 304 309 310 310 307 288 144 131 126 121 115 101 78 61 58 61 63 63 63 61 58 57 56 54 53 55 57 59 61 55 44 34 27 21 19 18 17 16 17 17 18 19 19 22 26 31 31 28 25 23 24 29 32 33 34 32 23 6 335 300 281 274 271 272 277 282 281 278 280 288 283 263 256 254 253 260 264 256 245
297 300 299 296 297 303 312 318 319 311 228 154 139 130 125 118 108 90 70 67 68 68 66 64 63 61 59 57 53 50 51 52 52 52 47 36 24 17 13 10 7 8 9 10 12 13 14 15 15 18 21 25 27 27 25 21 18 19 22 27 32 34 34 32 26 12 341 302 281 271 268 269 272 276 276 275 277 272 262 256 248 246 253 258 254
303 299 293 290 298 317 340 1 56 132 145 139 130 126 123 115 103 85 76 75 73 68 65 63 60 57 55 54 52 49 49 48 43 39 28 14 5 1 359 358 358 0 3 5 8 9 12 13 13 15 18 21 23 23 22 20 17 15 14 19 27 33 34 34 31 28 23 13 352 313 286 273 269 270 272 269 267 269 269 266 259 250 245 249 256
290 281 277 277 333 59 77 98 114 125 131 128 125 127 124 115 101 90 84 78 72 65 60 59 55 52 50 48 47 45 44 38 29 21 7 355 350 350 350 351 352 356 360 1 4 6 9 11 11 12 15 18 20 20 19 17 16 16 16 17 22 28 32 33 32 28 25 21 17 11 356 327 293 275 269 266 262 261 263 265 266 262 256 252 254
267 257 251 157 108 105 109 114 116 118 121 122 125 128 123 113 101 92 83 75 68 59 52 49 46 44 41 38 35 31 27 21 15 4 351 344 343 343 344 346 348 351 355 357 0 3 4 7 8 10 15 16 17 19 19 17 15 17 20 21 22 24 27 29 30 29 26 22 18 15 13 10 358 324 284 267 260 256 256 258 260 264 263 259 257
247 230 166 125 119 119 118 118 115 115 119 123 125 123 116 106 95 84 75 67 59 50 42 36 34 33 34 33 26 19 15 11 4 353 344 340 340 341 342 345 346 347 351 353 357 1 2 4 6 9 14 16 16 19 19 18 17 18 22 24 24 22 23 24 24 25 25 23 20 16 14 13 10 4 344 298 268 257 253 252 254 256 259 261 260
226 170 135 128 127 123 120 118 115 117 120 122 121 115 107 96 85 77 68 59 48 41 35 30 28 29 32 33 31 27 24 19 13 5 358 355 354 353 353 352 351 350 350 353 357 1 4 4 4 8 14 16 16 18 20 21 22 23 24 27 29 25 21 20 20 20 21 23 21 19 17 15 12 7 2 352 316 275 257 250 248 249 252 253 253
176 142 133 132 129 124 120 118 117 118 119 117 113 107 99 89 80 72 63 53 44 39 37 34 32 31 31 30 30 31 30 27 22 16 12 11 9 8 8 6 6 2 357 357 359 1 4 4 4 8 13 14 15 18 21 23 25 27 28 30 32 29 24 20 18 17 18 21 22 20 18 16 14 10 3 359 354 334 289 261 249 244 244 244 245
146 136 135 134 130 126 123 120 119 117 115 112 109 104 97 86 75 66 58 50 45 43 41 38 35 31 29 27 26 25 26 26 22 17 15 13 12 12 13 13 13 11 7 5 4 2 3 3 4 8 11 12 14 18 21 23 24 26 28 29 30 29 26 23 20 18 18 20 21 20 19 18 16 13 8 1 359 356 344 310 267 248 243 243 244
141 138 138 136 133 129 124 121 119 116 114 112 110 106 96 79 67 60 54 48 45 44 41 38 34 30 26 25 25 23 21 20 16 14 14 11 11 11 10 10 10 10 8 7 5 1 1 4 5 8 10 10 11 15 19 22 22 22 24 26 28 27 26 25 23 22 21 22 22 20 19 21 22 21 16 9 5 3 359 351 326 273 249 244 244
141 140 141 139 135 130 126 123 120 117 114 113 110 104 89 71 63 59 51 45 41 39 37 34 30 26 23 21 21 19 16 15 11 10 11 12 13 12 10 9 8 6 5 4 2 358 359 4 7 9 10 10 10 13 16 18 17 18 19 22 25 25 24 24 24 24 24 24 23 21 21 25 28 28 27 23 18 14 11 6 358 338 278 250 243
143 143 143 140 136 131 127 124 121 119 116 112 105 94 83 73 64 56 48 43 38 35 32 29 25 23 21 18 15 12 11 11 10 9 11 12 15 14 10 9 6 4 2 0 358 357 359 3 5 8 10 10 10 12 14 14 13 13 14 16 20 23 23 23 23 23 24 25 23 21 23 26 27 27 30 32 30 28 25 21 14 6 346 282 250
146 146 144 140 134 129 127 125 122 120 116 109 98 91 84 73 61 53 47 40 34 30 27 24 21 19 17 14 11 8 7 7 8 9 10 11 13 11 8 5 3 1 360 359 359 360 1 3 4 5 6 8 8 10 12 11 9 9 10 13 17 20 22 23 23 24 25 25 24 22 23 24 25 24 28 32 34 36 35 32 28 21 14 355 288
149 148 145 141 134 128 126 124 121 117 112 107 99 91 79 65 56 49 42 34 26 21 19 18 16 13 11 9 8 7 6 6 6 6 6 6 8 8 5 2 0 359 359 359 0 3 5 5 4 2 0 1 3 5 8 8 5 4 5 9 13 16 19 20 21 23 25 28 27 26 26 25 25 25 25 28 32 35 38 38 36 33 27 20 5
153 152 150 145 138 130 127 123 118 115 111 107 97 83 68 56 49 42 35 26 19 12 11 9 7 6 5 5 7 6 6 6 5 3 1 1 3 3 1 359 357 357 356 356 357 360 2 3 3 1 355 353 356 358 1 2 1 360 0 3 7 11 14 17 19 19 20 23 27 27 26 25 25 26 25 25 27 31 35 37 38 37 35 31 25
159 159 157 154 146 135 132 125 119 117 114 105 92 75 58 46 39 33 27 19 12 7 4 1 360 1 2 4 5 4 5 6 4 1 359 358 359 359 357 356 354 353 352 351 352 352 352 354 356 357 354 349 348 349 352 355 355 354 356 358 360 2 5 9 13 15 14 15 19 21 21 21 22 23 24 23 22 23 24 30 34 36 37 35 33
163 164 164 162 156 148 142 131 126 125 122 112 92 66 45 34 28 24 19 14 9 4 360 356 354 357 360 2 3 3 3 3 2 360 358 357 356 355 353 352 351 350 349 348 346 345 343 344 345 348 351 348 343 342 344 347 348 348 349 352 354 355 356 359 1 5 7 8 9 12 13 13 14 15 17 18 19 18 16 17 22 28 32 34 34
163 164 166 167 166 165 161 150 143 140 138 128 87 50 30 21 17 14 11 7 4 0 357 354 352 354 358 0 1 1 1 1 0 358 356 355 353 352 351 350 349 348 347 347 346 344 340 339 340 342 345 346 341 338 339 341 342 342 343 346 349 351 350 351 352 353 356 358 0 4 5 5 6 6 8 10 11 13 12 10 11 15 19 24 28
165 166 168 172 176 182 185 176 166 163 161 150 68 21 11 9 6 3 2 1 358 356 354 352 351 353 356 359 360 360 0 0 358 355 353 352 350 350 351 350 349 346 344 343 342 341 339 338 338 339 341 343 340 337 336 337 337 337 339 340 343 346 346 345 346 345 345 348 352 355 355 356 358 359 0 1 2 4 5 5 5 6 8 11 15
172 172 176 183 189 199 203 196 191 192 196 219 318 347 353 356 354 353 355 355 354 352 351 350 350 352 354 358 359 359 358 358 356 353 351 349 348 349 349 349 349 346 342 340 339 339 338 336 338 339 340 341 339 335 333 333 334 335 335 336 337 340 342 342 341 340 338 338 343 347 345 345 348 351 353 354 353 353 355 357 358 358 0 3 4
184 186 192 200 207 213 213 208 207 211 222 252 293 322 336 343 344 345 348 348 349 349 348 348 350 352 353 355 357 356 354 353 352 350 348 347 347 348 349 349 348 347 344 342 341 340 338 337 337 340 341 340 338 335 331 329 331 333 334 334 334 335 337 338 338 337 335 333 335 340 340 336 339 341 344 348 346 344 346 348 350 351 352 355 356
198 204 209 216 222 224 220 216 216 222 237 258 284 309 322 331 335 338 341 342 345 346 346 347 351 353 353 351 351 350 348 348 348 347 346 345 347 348 349 349 347 346 346 345 343 342 340 337 337 339 340 339 339 338 333 328 326 329 332 334 334 334 333 334 333 331 329 327 327 332 335 333 334 332 333 340 340 336 338 340 342 344 344 347 349
206 212 220 226 232 231 227 226 228 234 246 262 280 298 310 320 328 332 334 337 341 344 345 347 350 353 352 349 345 343 342 343 345 345 346 346 347 347 347 346 345 345 345 344 343 341 339 337 334 335 336 338 340 340 338 332 326 326 329 332 334 334 333 332 331 328 325 322 320 325 328 330 332 329 326 332 333 330 331 333 334 337 337 339 342
211 214 221 228 233 235 235 237 242 249 258 268 279 291 302 313 322 327 330 334 338 341 343 345 348 349 348 344 340 338 339 341 344 345 345 345 344 344 344 344 345 345 344 343 342 340 338 336 333 329 329 333 338 340 340 337 332 328 326 328 331 332 333 332 329 328 326 321 317 318 321 325 331 330 325 327 328 324 325 327 326 329 330 332 335
222 221 221 223 228 235 241 245 252 261 269 275 282 290 299 308 317 323 327 331 333 336 339 341 343 343 340 337 333 333 337 341 343 344 342 341 340 341 342 344 346 346 344 343 341 339 338 336 332 328 325 327 332 336 337 337 335 331 327 326 328 329 330 330 328 327 326 322 316 314 316 319 324 326 323 322 321 319 319 320 321 321 323 325 328
229 231 229 227 230 237 243 250 259 269 276 280 285 291 299 306 313 320 325 329 330 331 333 335 337 337 333 329 328 331 336 340 342 341 339 338 339 339 340 342 344 344 343 341 340 339 338 337 334 330 326 324 327 331 332 333 333 332 329 327 326 327 326 326 325 325 325 323 317 312 312 314 315 316 317 316 315 313 313 314 314 315 317 319 321
233 237 238 237 239 244 250 256 265 274 280 284 289 294 300 305 310 316 322 326 327 326 327 329 330 330 327 325 326 330 335 338 338 336 336 337 338 338 338 340 341 341 340 339 339 339 339 339 336 332 326 322 324 326 327 329 330 329 328 326 325 325 324 323 323 323 323 322 318 312 309 309 309 308 311 313 312 310 310 310 309 311 314 315 316
Height
11022 11022 11020 11020 11020 11019 11019 11018 11017 11017 11016 11015 11014 11013 11012 11010 11009 11008 11007 11005 11004 11003 11001 10999 10997 10996 10994 10992 10989 10987 10985 10983 10982 10980 10978 10977 10975 10974 10972 10971 10969 10967 10966 10964 10962 10961 10959 10957 10956 10955 10955 10954 10953 10952 10952 10952 10951 10951 10951 10951 10951 10950 10950 10949 10948 10947 10947 10946 10946 10945 10944 10944 10943 10942 10942 10941 10940 10940 10939 10939 10938 10938 10937 10936 10935
11020 11020 11020 11018 11018 11017 11017 11016 11015 11015 11014 11013 11012 11012 11011 11010 11008 11007 11006 11005 11003 11002 11000 10998 10997 10995 10994 10991 10989 10986 10984 10982 10980 10978 10977 10975 10974 10972 10971 10970 10969 10968 10966 10965 10963 10961 10959 10958 10957 10956 10956 10955 10955 10954 10953 10953 10953 10953 10952 10952 10951 10951 10950 10950 10949 10949 10948 10947 10946 10945 10945 10944 10943 10942 10942 10941 10940 10940 10939 10939 10938 10938 10937 10936 10936
11018 11018 11018 11018 11017 11016 11015 11014 11014 11013 11012 11012 11011 11011 11010 11009 11008 11007 11005 11004 11002 11000 10998 10997 10995 10994 10992 10990 10987 10985 10983 10981 10979 10977 10975 10974 10973 10972 10970 10969 10969 10968 10966 10965 10964 10962 10960 10959 10958 10957 10957 10957 10956 10956 10955 10954 10954 10954 10953 10953 10952 10952 10952 10951 10951 10950 10949 10948 10947 10946 10945 10944 10944 10943 10942 10941 10940 10940 10939 10939 10938 10938 10937 10937 10936
11017 11017 11017 11016 11015 11015 11014 11013 11012 11012 11011 11011 11010 11009 11009 11008 11007 11006 11005 11003 11001 10999 10997 10995 10994 10993 10991 10988 10986 10984 10981 10979 10977 10975 10974 10973 10972 10971 10970 10969 10969 10968 10967 10966 10965 10963 10961 10960 10959 10958 10958 10957 10957 10957 10956 10955 10955 10955 10954 10954 10954 10953 10953 10952 10951 10951 10950 10949 10948 10947 10946 10945 10944 10944 10942 10941 10940 10940 10939 10939 10939 10938 10937 10937 10936
11015 11015 11015 11014 11014 11013 11012 11011 11011 11011 11010 11010 11009 11009 11008 11007 11006 11005 11003 11001 10999 10997 10996 10994 10993 10991 10989 10987 10985 10983 10980 10978 10976 10974 10973 10973 10971 10970 10969 10969 10969 10968 10967 10966 10965 10964 10962 10961 10960 10959 10958 10958 10957 10957 10956 10956 10955 10955 10955 10955 10955 10955 10954 10953 10952 10951 10950 10950 10949 10948 10948 10946 10945 10944 10943 10942 10941 10940 10939 10939 10939 10938 10938 10937 10937
11014 11013 11013 11012 11012 11011 11010 11010 11010 11010 11009 11009 11008 11007 11007 11006 11005 11004 11002 11000 10998 10996 10995 10993 10991 10990 10988 10987 10984 10982 10979 10977 10975 10974 10973 10972 10971 10970 10969 10969 10969 10968 10967 10966 10965 10964 10963 10962 10961 10960 10959 10958 10957 10957 10956 10955 10955 10955 10956 10956 10955 10955 10954 10953 10953 10952 10951 10950 10949 10949 10948 10947 10946 10945 10944 10943 10942 10941 10940 10939 10939 10939 10938 10937 10937
11012 11012 11011 11011 11011 11010 11010 11009 11009 11009 11008 11007 11007 11006 11006 11005 11004 11002 11000 10998 10997 10995 10994 10992 10991 10989 10988 10986 10984 10981 10978 10976 10974 10973 10972 10972 10971 10969 10969 10969 10968 10968 10967 10966 10965 10965 10963 10962 10962 10961 10960 10959 10958 10957 10956 10956 10956 10956 10956 10955 10955 10954 10954 10953 10953 10952 10951 10951 10950 10949 10948 10948 10947 10946 10944 10943 10942 10941 10941 10940 10939 10939 10938 10938 10937
11011 11010 11010 11010 11010 11009 11009 11009 11008 11008 11007 11006 11006 11006 11005 11004 11002 11001 10999 10998 10996 10995 10993 10992 10991 10990 10988 10986 10983 10980 10978 10976 10974 10972 10972 10971 10970 10969 10969 10969 10968 10968 10968 10967 10965 10965 10964 10963 10962 10961 10960 10959 10958 10957 10956 10956 10956 10956 10955 10955 10954 10954 10953 10953 10952 10952 10951 10950 10950 10949 10948 10948 10947 10946 10945 10944 10943 10942 10941 10941 10940 10939 10939 10938 10937
11010 11009 11009 11009 11009 11009 11009 11008 11008 11007 11006 11006 11005 11005 11004 11003 11002 11000 10999 10997 10996 10995 10993 10992 10990 10989 10987 10985 10982 10979 10977 10975 10973 10972 10971 10971 10970 10969 10969 10969 10968 10968 10968 10966 10965 10964 10964 10964 10963 10962 10961 10959 10958 10957 10956 10956 10956 10955 10955 10954 10954 10954 10953 10952 10951 10952 10951 10950 10950 10949 10949 10948 10947 10946 10945 10944 10944 10943 10942 10941 10940 10939 10939 10938 10937
11009 11008 11008 11008 11008 11008 11008 11008 11007 11007 11006 11005 11005 11004 11003 11002 11001 10999 10998 10997 10996 10994 10993 10991 10989 10988 10986 10984 10981 10979 10976 10974 10972 10971 10971 10970 10970 10969 10969 10968 10968 10968 10967 10966 10965 10965 10965 10964 10963 10962 10961 10959 10958 10957 10957 10956 10956 10955 10954 10954 10954 10953 10953 10952 10951 10951 10951 10950 10950 10949 10949 10948 10947 10946 10946 10945 10944 10944 10943 10942 10941 10940 10939 10938 10937
11007 11007 11007 11008 11008 11007 11007 11007 11006 11006 11005 11005 11004 11004 11003 11001 11000 10999 10997 10996 10995 10993 10991 10990 10988 10987 10986 10983 10981 10978 10976 10974 10972 10971 10970 10970 10970 10969 10969 10969 10968 10968 10967 10967 10966 10965 10965 10964 10964 10963 10961 10960 10958 10957 10957 10957 10956 10955 10954 10953 10953 10952 10952 10952 10951 10951 10951 10950 10950 10949 10949 10948 10947 10946 10946 10945 10945 10944 10943 10943 10942 10940 10939 10938 10937
11006 11007 11007 11007 11007 11007 11006 11006 11005 11005 11005 11004 11003 11003 11001 11000 10999 10997 10996 10995 10993 10992 10990 10989 10988 10987 10985 10983 10980 10978 10976 10974 10972 10971 10970 10970 10970 10970 10969 10969 10968 10968 10967 10967 10966 10966 10965 10965 10964 10963 10962 10960 10958 10957 10957 10957 10956 10955 10954 10954 10953 10952 10951 10951 10951 10951 10950 10950 10950 10949 10949 10948 10947 10946 10946 10946 10945 10944 10944 10943 10942 10941 10940 10939 10937
11005 11005 11005 11006 11006 11005 11005 11004 11004 11004 11003 11003 11002 11001 11000 10999 10997 10996 10995 10993 10992 10991 10990 10989 10988 10987 10985 10983 10980 10978 10976 10974 10972 10971 10971 10971 10970 10970 10970 10969 10969 10968 10968 10967 10967 10967 10966 10965 10964 10963 10962 10960 10958 10957 10957 10957 10956 10955 10954 10954 10953 10952 10951 10950 10950 10950 10950 10949 10949 10949 10949 10948 10947 10947 10947 10946 10945 10944 10944 10943 10942 10942 10941 10940 10938
11003 11004 11004 11004 11004 11003 11003 11002 11002 11002 11002 11001 11001 11000 10999 10997 10996 10994 10993 10992 10991 10990 10989 10988 10987 10986 10985 10983 10980 10979 10977 10975 10973 10972 10972 10972 10971 10971 10970 10970 10969 10969 10968 10968 10967 10967 10966 10965 10964 10963 10961 10959 10958 10957 10957 10956 10956 10955 10955 10954 10953 10952 10951 10950 10949 10949 10949 10949 10949 10949 10949 10948 10947 10947 10946 10946 10945 10944 10944 10943 10943 10942 10941 10941 10939
11003 11003 11003 11002 11002 11002 11001 11001 11001 11000 11000 11000 10999 10998 10997 10996 10994 10993 10992 10991 10991 10990 10989 10988 10987 10986 10985 10983 10981 10979 10978 10976 10974 10974 10973 10973 10972 10972 10971 10971 10970 10970 10969 10969 10968 10967 10966 10965 10963 10962 10960 10959 10957 10956 10956 10955 10955 10954 10954 10953 10952 10951 10951 10949 10948 10948 10949 10949 10948 10948 10948 10948 10947 10946 10946 10946 10945 10944 10944 10943 10943 10943 10942 10941 10940
11002 11002 11002 11001 11001 11001 11000 11000 10999 10999 10998 10998 10998 10997 10996 10994 10993 10992 10991 10991 10990 10989 10988 10988 10987 10986 10985 10983 10982 10980 10979 10977 10976 10975 10974 10974 10973 10973 10972 10972 10971 10971 10970 10969 10968 10967 10966 10964 10963 10961 10959 10958 10956 10955 10954 10954 10954 10953 10953 10951 10950 10950 10950 10949 10948 10947 10948 10948 10948 10947 10947 10947 10947 10946 10945 10945 10945 10944 10944 10943 10943 10943 10942 10942 10941
11002 11001 11001 11000 11000 11000 11000 10999 10998 10998 10997 10997 10996 10995 10994 10993 10992 10992 10991 10990 10990 10989 10989 10988 10988 10987 10986 10984 10983 10981 10980 10979 10978 10977 10976 10975 10975 10974 10973 10973 10972 10972 10971 10970 10968 10967 10965 10964 10962 10961 10959 10957 10955 10953 10952 10951 10951 10952 10950 10948 10948 10949 10948 10948 10947 10947 10947 10947 10947 10947 10946 10946 10946 10945 10945 10944 10944 10944 10943 10943 10943 10942 10942 10942 10941
11000 11000 10999 10999 10999 10999 10998 10998 10997 10997 10996 10996 10995 10994 10994 10993 10992 10991 10991 10990 10989 10989 10989 10989 10988 10987 10986 10985 10984 10983 10981 10980 10980 10979 10978 10977 10976 10975 10975 10974 10974 10973 10972 10970 10969 10967 10966 10964 10963 10961 10959 10956 10954 10951 10950 10949 10949 10948 10946 10945 10947 10947 10947 10947 10947 10947 10947 10947 10947 10946 10945 10945 10945 10945 10944 10944 10943 10943 10943 10943 10942 10942 10942 10942 10941
10998 10998 10998 10997 10997 10997 10997 10997 10996 10996 10995 10995 10994 10994 10993 10993 10992 10991 10990 10990 10990 10990 10990 10990 10989 10988 10987 10986 10985 10984 10983 10982 10981 10980 10979 10978 10977 10977 10976 10975 10975 10974 10972 10971 10969 10968 10966 10964 10963 10961 10959 10956 10953 10950 10948 10947 10946 10945 10944 10944 10946 10946 10946 10946 10947 10947 10947 10947 10946 10945 10944 10944 10944 10943 10943 10943 10943 10943 10943 10942 10942 10942 10942 10942 10941
10996 10996 10996 10996 10996 10996 10996 10995 10995 10994 10994 10994 10994 10993 10993 10992 10991 10991 10990 10990 10990 10991 10991 10990 10990 10989 10988 10987 10986 10985 10984 10983 10982 10981 10980 10980 10979 10978 10977 10976 10976 10974 10973 10971 10970 10968 10966 10965 10963 10961 10959 10957 10953 10950 10947 10946 10946 10945 10944 10945 10946 10946 10946 10946 10946 10946 10946 10946 10945 10944 10943 10943 10942 10942 10942 10942 10942 10942 10942 10942 10942 10942 10942 10942 10942
10994 10994 10994 10994 10994 10994 10994 10994 10994 10994 10994 10993 10993 10992 10992 10992 10991 10991 10991 10991 10991 10991 10991 10991 10990 10990 10989 10988 10987 10986 10985 10984 10983 10982 10981 10981 10980 10979 10979 10978 10976 10975 10973 10972 10970 10968 10967 10965 10964 10962 10959 10957 10954 10950 10947 10946 10947 10946 10945 10946 10946 10946 10946 10945 10945 10944 10944 10944 10943 10943 10942 10942 10941 10941 10941 10941 10941 10941 10942 10942 10942 10941 10942 10942 10942
10992 10992 10993 10993 10993 10993 10993 10993 10994 10993 10993 10993 10993 10992 10992 10992 10992 10992 10992 10992 10992 10992 10992 10992 10991 10991 10990 10989 10988 10987 10986 10985 10984 10983 10982 10982 10981 10981 10980 10979 10977 10976 10974 10972 10971 10969 10967 10966 10964 10962 10960 10957 10954 10951 10948 10947 10948 10948 10946 10946 10946 10945 10945 10944 10943 10942 10942 10942 10941 10941 10941 10941 10941 10941 10941 10941 10940 10940 10941 10941 10941 10941 10940 10941 10941
10991 10991 10991 10992 10992 10992 10993 10993 10993 10993 10993 10993 10992 10992 10992 10992 10992 10993 10993 10993 10993 10993 10993 10993 10992 10992 10991 10990 10989 10988 10988 10986 10985 10984 10983 10983 10982 10982 10980 10979 10978 10976 10974 10973 10971 10970 10968 10966 10965 10963 10961 10958 10955 10952 10950 10948 10949 10948 10947 10946 10945 10944 10943 10943 10942 10941 10940 10940 10940 10940 10940 10940 10940 10940 10941 10940 10940 10939 10940 10940 10940 10940 10939 10939 10940
10990 10990 10990 10991 10992 10992 10993 10993 10993 10993 10993 10992 10992 10993 10993 10993 10993 10994 10994 10994 10994 10994 10994 10994 10993 10993 10992 10991 10990 10989 10989 10988 10987 10986 10985 10985 10984 10982 10981 10979 10978 10976 10975 10973 10972 10970 10968 10967 10965 10964 10962 10960 10957 10954 10951 10950 10949 10948 10947 10945 10944 10943 10942 10941 10940 10939 10939 10939 10938 10938 10938 10938 10938 10939 10940 10939 10939 10939 10939 10939 10939 10939 10938 10938 10938
10989 10990 10990 10991 10992 10992 10992 10992 10992 10992 10992 10992 10993 10993 10993 10994 10995 10995 10995 10995 10995 10995 10995 10995 10994 10994 10993 10993 10992 10991 10990 10988 10988 10987 10987 10986 10984 10983 10981 10980 10978 10977 10976 10974 10972 10970 10969 10967 10965 10964 10962 10960 10958 10956 10953 10951 10950 10948 10947 10946 10944 10943 10941 10940 10939 10938 10937 10937 10937 10936 10936 10937 10937 10938 10938 10938 10938 10938 10939 10938 10937 10937 10937 10937 10937
10990 10990 10991 10991 10992 10992 10992 10992 10992 10992 10992 10993 10993 10994 10994 10995 10996 10996 10996 10996 10996 10996 10996 10996 10995 10994 10994 10993 10992 10991 10990 10989 10989 10988 10988 10987 10985 10983 10982 10981 10979 10978 10977 10975 10973 10971 10969 10967 10965 10963 10962 10960 10958 10957 10955 10953 10950 10949 10948 10947 10945 10943 10942 10940 10939 10937 10936 10936 10935 10935 10934 10935 10936 10936 10936 10936 10937 10936 10936 10936 10936 10935 10935 10935 10935
10990 10991 10991 10992 10992 10992 10992 10992 10992 10992 10993 10994 10994 10995 10995 10996 10997 10997 10997 10997 10997 10997 10997 10996 10996 10995 10994 10993 10993 10992 10991 10991 10990 10989 10988 10987 10986 10984 10982 10981 10980 10978 10977 10975 10974 10972 10969 10967 10965 10964 10962 10960 10959 10957 10956 10954 10952 10950 10948 10947 10946 10944 10943 10941 10939 10937 10936 10935 10934 10933 10933 10932 10933 10934 10934 10935 10935 10934 10934 10934 10933 10933 10933 10933 10934
10990 10991 10992 10992 10992 10992 10992 10992 10992 10993 10994 10994 10995 10996 10996 10997 10997 10998 10998 10998 10998 10998 10997 10997 10996 10996 10995 10994 10994 10993 10993 10992 10991 10990 10989 10988 10986 10984 10982 10981 10980 10979 10977 10976 10974 10972 10970 10968 10966 10964 10962 10960 10959 10958 10956 10955 10954 10952 10950 10948 10946 10945 10944 10942 10940 10938 10936 10935 10933 10932 10931 10930 10930 10930 10930 10932 10933 10932 10931 10931 10931 10931 10932 10933 10933
10991 10991 10992 10992 10992 10993 10993 10993 10994 10994 10995 10995 10996 10997 10997 10998 10998 10999 10999 10999 10999 10998 10998 10998 10997 10996 10995 10995 10994 10994 10993 10992 10991 10990 10989 10988 10986 10984 10983 10982 10981 10979 10978 10976 10975 10973 10972 10970 10967 10965 10962 10961 10960 10959 10957 10955 10954 10952 10950 10949 10947 10946 10944 10943 10941 10940 10937 10935 10934 10932 10931 10929 10928 10928 10927 10928 10929 10929 10929 10928 10929 10930 10931 10931 10931
10991 10991 10992 10992 10993 10993 10994 10994 10995 10995 10996 10996 10997 10998 10998 10999 10999 10999 10999 10999 10999 10999 10999 10998 10997 10997 10996 10996 10995 10994 10993 10993 10992 10991 10989 10988 10986 10985 10983 10982 10981 10980 10978 10977 10976 10975 10973 10971 10968 10966 10964 10962 10961 10960 10958 10955 10953 10952 10951 10949 10948 10946 10945 10944 10942 10940 10939 10936 10934 10932 10931 10929 10928 10927 10926 10925 10925 10925 10926 10926 10927 10928 10929 10930 10929
10991 10991 10991 10992 10993 10994 10995 10995 10996 10996 10997 10998 10999 10999 11000 11000 11000 11000 11000 11000 11000 10999 10999 10999 10998 10997 10997 10997 10996 10995 10994 10993 10992 10991 10989 10988 10986 10984 10983 10982 10981 10980 10978 10977 10977 10975 10973 10971 10970 10967 10965 10963 10962 10961 10958 10956 10954 10952 10951 10950 10948 10947 10946 10944 10943 10941 10939 10937 10935 10933 10932 10930 10928 10927 10925 10924 10923 10922 10922 10923 10924 10926 10927 10927 10926
10990 10991 10992 10993 10994 10995 10996 10996 10997 10998 10998 10999 11000 11001 11001 11001 11001 11001 11001 11001 11001 11000 11000 10999 10998 10998 10997 10997 10997 10996 10994 10993 10992 10991 10989 10987 10986 10985 10984 10983 10981 10980 10979 10978 10977 10976 10973 10972 10970 10968 10966 10964 10963 10961 10959 10957 10955 10953 10951 10950 10949 10948 10946 10945 10943 10941 10940 10938 10936 10934 10932 10930 10929 10927 10925 10924 10922 10921 10920 10919 10921 10923 10923 10922 10921
10990 10991 10993 10994 10995 10996 10996 10997 10998 10999 10999 11000 11001 11002 11002 11002 11002 11002 11002 11002 11001 11001 11000 11000 10999 10998 10998 10997 10997 10996 10994 10993 10992 10991 10989 10988 10987 10986 10985 10983 10982 10981 10980 10979 10977 10976 10974 10972 10970 10968 10966 10965 10963 10961 10960 10958 10956 10955 10953 10951 10950 10948 10947 10945 10943 10942 10940 10938 10936 10935 10933 10931 10929 10927 10925 10924 10922 10920 10918 10917 10916 10918 10918 10918 10918
10991 10992 10993 10994 10995 10996 10997 10998 10999 10999 11000 11001 11002 11002 11003 11003 11003 11003 11003 11002 11002 11002 11001 11001 11000 10999 10999 10998 10997 10996 10995 10994 10993 10991 10990 10989 10988 10986 10985 10984 10983 10981 10980 10978 10977 10976 10974 10972 10970 10968 10967 10965 10963 10962 10960 10959 10957 10956 10954 10952 10950 10949 10947 10945 10944 10942 10940 10939 10937 10935 10933 10932 10930 10928 10926 10924 10922 10920 10918 10916 10914 10913 10914 10914 10914
10992 10993 10994 10995 10996 10997 10998 10998 10999 11000 11001 11002 11002 11003 11003 11004 11004 11004 11003 11003 11002 11002 11002 11001 11001 11000 10999 10998 10997 10996 10995 10994 10993 10992 10991 10990 10988 10986 10985 10984 10983 10981 10980 10978 10977 10976 10974 10973 10971 10969 10967 10966 10964 10962 10961 10959 10958 10956 10954 10953 10951 10949 10947 10946 10944 10942 10940 10939 10937 10936 10934 10932 10930 10928 10926 10924 10922 10920 10918 10915 10913 10911 10910 10910 10911
10992 10994 10995 10996 10997 10998 10998 10999 11000 11001 11001 11002 11003 11003 11004 11004 11004 11004 11004 11004 11003 11003 11002 11002 11001 11000 11000 10999 10998 10997 10996 10995 10994 10992 10991 10990 10988 10986 10985 10984 10983 10981 10980 10978 10977 10976 10974 10973 10971 10969 10968 10966 10964 10962 10961 10959 10958 10956 10955 10953 10952 10950 10948 10946 10944 10943 10941 10939 10937 10936 10935 10933 10931 10929 10927 10925 10923 10920 10918 10915 10913 10911 10909 10908 10908
10993 10994 10996 10997 10998 10998 10999 11000 11000 11001 11002 11002 11003 11003 11004 11004 11004 11005 11004 11004 11004 11003 11003 11002 11001 11001 11000 10999 10998 10997 10996 10995 10994 10992 10991 10989 10988 10986 10985 10984 10982 10981 10979 10978 10977 10975 10974 10972 10971 10969 10968 10966 10965 10963 10961 10959 10958 10956 10955 10954 10952 10950 10948 10946 10945 10943 10941 10940 10938 10936 10935 10933 10932 10930 10928 10926 10923 10921 10918 10916 10913 10911 10909 10907 10906
10994 10995 10996 10997 10998 10999 11000 11001 11001 11002 11002 11003 11003 11004 11004 11004 11005 11005 11005 11004 11004 11003 11003 11002 11001 11000 10999 10999 10998 10997 10996 10995 10994 10992 10991 10989 10988 10986 10985 10983 10982 10980 10979 10977 10976 10975 10974 10972 10971 10969 10968 10966 10965 10963 10961 10959 10958 10957 10955 10954 10952 10950 10949 10947 10945 10944 10942 10940 10939 10937 10935 10934 10932 10930 10928 10926 10924 10921 10919 10916 10914 10911 10909 10907 10906
10994 10996 10997 10998 10999 11000 11001 11001 11002 11002 11003 11003 11004 11004 11004 11005 11005 11005 11005 11004 11003 11003 11002 11002 11001 11000 10999 10998 10997 10997 10996 10995 10993 10992 10990 10989 10988 10986 10984 10983 10981 10980 10978 10977 10976 10975 10974 10972 10970 10969 10967 10966 10964 10962 10961 10959 10958 10957 10955 10954 10952 10950 10949 10947 10946 10944 10942 10941 10939 10937 10936 10934 10932 10931 10929 10927 10925 10922 10920 10917 10914 10912 10909 10907 10906
10995 10996 10997 10999 11000 11000 11001 11001 11002 11002 11003 11003 11004 11004 11005 11005 11005 11005 11004 11004 11003 11002 11001 11001 11000 11000 10999 10998 10997 10996 10995 10994 10993 10992 10990 10989 10987 10986 10984 10983 10981 10979 10978 10976 10975 10974 10973 10971 10970 10969 10967 10965 10964 10962 10961 10959 10958 10957 10955 10954 10952 10950 10948 10947 10946 10944 10942 10941 10939 10938 10936 10934 10932 10930 10929 10927 10925 10922 10920 10917 10915 10913 10910 10908 10906
10995 10996 10998 10999 11000 11001 11001 11002 11002 11003 11003 11003 11004 11004 11005 11005 11005 11004 11004 11003 11003 11002 11001 11000 11000 10999 10999 10998 10997 10996 10995 10994 10993 10992 10990 10989 10987 10986 10984 10982 10981 10979 10978 10976 10975 10974 10972 10971 10969 10968 10966 10965 10963 10962 10961 10959 10958 10956 10955 10953 10952 10950 10948 10946 10945 10943 10942 10940 10939 10937 10935 10934 10931 10929 10928 10926 10924 10922 10920 10917 10915 10913 10911 10909 10907
10995 10996 10998 10999 11000 11000 11001 11002 11002 11003 11003 11003 11004 11004 11004 11004 11004 11004 11003 11003 11002 11002 11001 11000 11000 10999 10998 10997 10997 10996 10995 10994 10992 10991 10990 10988 10987 10986 10984 10982 10980 10979 10977 10976 10975 10973 10972 10970 10969 10967 10966 10964 10963 10962 10960 10959 10957 10956 10955 10953 10951 10949 10947 10945 10943 10942 10940 10939 10938 10936 10934 10932 10931 10929 10927 10925 10923 10922 10920 10918 10916 10914 10911 10909 10907
10995 10996 10998 10999 10999 11000 11001 11001 11002 11002 11003 11003 11004 11004 11004 11004 11004 11003 11003 11002 11002 11001 11001 11000 10999 10999 10998 10997 10996 10995 10994 10993 10992 10991 10989 10988 10987 10985 10983 10982 10980 10978 10977 10976 10974 10973 10971 10969 10968 10966 10965 10964 10962 10961 10960 10958 10957 10955 10954 10952 10950 10948 10947 10944 10942 10941 10939 10937 10936 10935 10933 10931 10930 10928 10926 10924 10922 10920 10919 10918 10916 10914 10912 10910 10907
10995 10996 10997 10998 10999 11000 11000 11001 11002 11002 11003 11003 11003 11003 11003 11003 11003 11003 11002 11001 11001 11000 11000 11000 10999 10998 10997 10997 10996 10995 10993 10992 10991 10990 10989 10987 10986 10984 10983 10981 10980 10978 10977 10976 10974 10972 10970 10968 10967 10965 10964 10963 10962 10960 10959 10958 10956 10954 10953 10951 10949 10947 10946 10944 10941 10939 10938 10936 10934 10933 10932 10930 10928 10927 10925 10923 10921 10919 10917 10916 10915 10913 10912 10910 10907
10994 10995 10997 10998 10999 10999 11000 11001 11001 11002 11002 11002 11002 11002 11002 11002 11002 11002 11001 11001 11000 11000 10999 10999 10998 10997 10996 10996 10995 10994 10992 10991 10990 10989 10988 10987 10985 10984 10983 10981 10980 10978 10977 10975 10973 10972 10970 10968 10966 10965 10964 10962 10961 10959 10958 10956 10955 10953 10951 10950 10947 10945 10944 10942 10940 10938 10936 10934 10932 10931 10930 10928 10926 10925 10923 10922 10920 10919 10917 10915 10913 10912 10910 10909 10908
10993 10994 10996 10997 10998 10999 10999 11000 11000 11001 11001 11001 11001 11001 11001 11001 11001 11001 11000 11000 10999 10999 10998 10998 10997 10996 10995 10994 10993 10992 10991 10990 10989 10988 10987 10986 10985 10984 10982 10981 10979 10978 10976 10974 10972 10971 10970 10968 10966 10964 10962 10961 10960 10958 10957 10955 10954 10952 10950 10948 10946 10944 10942 10940 10939 10937 10935 10933 10931 10928 10927 10926 10924 10923 10921 10920 10918 10917 10916 10914 10912 10911 10909 10907 10906
10991 10993 10994 10996 10997 10998 10998 10999 11000 11000 11000 11000 11000 11000 11000 11000 11000 11000 10999 10999 10998 10998 10997 10996 10996 10995 10994 10993 10992 10990 10989 10989 10988 10987 10986 10985 10984 10983 10982 10980 10978 10977 10975 10973 10971 10970 10968 10967 10965 10963 10961 10959 10958 10956 10955 10954 10953 10951 10949 10947 10945 10942 10940 10938 10936 10935 10934 10932 10930 10927 10924 10923 10923 10921 10919 10918 10917 10915 10913 10913 10911 10910 10908 10905 10904
10990 10991 10993 10994 10995 10996 10998 10998 10999 10999 10999 10999 10999 10999 10999 10999 10999 10999 10998 10998 10997 10996 10996 10995 10994 10994 10993 10991 10990 10989 10988 10987 10987 10986 10985 10984 10982 10981 10980 10979 10977 10975 10973 10971 10970 10968 10966 10965 10963 10962 10960 10958 10956 10954 10953 10952 10951 10949 10947 10945 10943 10941 10938 10935 10933 10932 10931 10929 10928 10926 10923 10920 10920 10919 10916 10915 10915 10913 10911 10910 10909 10908 10906 10904 10902
10990 10991 10991 10992 10993 10995 10996 10997 10998 10998 10998 10999 10998 10998 10998 10998 10998 10997 10997 10997 10996 10995 10994 10994 10993 10992 10991 10990 10989 10988 10987 10986 10986 10984 10983 10982 10981 10980 10979 10977 10976 10974 10971 10969 10967 10966 10964 10962 10961 10960 10958 10957 10955 10953 10951 10949 10948 10946 10944 10942 10940 10938 10936 10934 10931 10929 10928 10926 10925 10924 10921 10918 10917 10917 10915 10913 10912 10911 10909 10907 10906 10905 10904 10902 10900
10989 10990 10991 10991 10992 10993 10995 10996 10997 10997 10998 10998 10998 10997 10997 10997 10997 10996 10996 10996 10995 10994 10993 10992 10991 10990 10989 10988 10987 10986 10986 10985 10984 10982 10981 10980 10979 10978 10977 10975 10973 10971 10969 10968 10965 10963 10961 10960 10959 10957 10956 10955 10953 10951 10949 10947 10945 10943 10941 10939 10937 10935 10933 10932 10929 10927 10926 10924 10921 10920 10918 10916 10914 10913 10912 10910 10909 10907 10906 10905 10903 10902 10901 10900 10898
10988 10989 10991 10991 10991 10992 10993 10994 10995 10996 10997 10997 10997 10996 10996 10996 10995 10995 10995 10994 10993 10992 10991 10990 10989 10988 10987 10985 10985 10984 10984 10983 10981 10980 10979 10978 10977 10976 10974 10972 10970 10968 10966 10965 10963 10961 10959 10957 10956 10955 10954 10952 10951 10949 10947 10944 10942 10940 10938 10936 10934 10932 10930 10928 10926 10924 10923 10921 10919 10917 10915 10913 10911 10910 10907 10906 10905 10904 10903 10901 10899 10899 10898 10897 10895